Voltar ao catálogo

DELTA 1 DEB

AtivoSSO
NORAD 21275·DEBRIS·🇺🇸 United States

Lançado Jun 12, 1975 de Vandenberg Space Force Base

Loading…

Próximas Passagens (próximas 24 horas)

TLE

AtualizadoSource: Space-Track

Época: Sep 14, 2026, 05:36 UTC

1 21275U 75052L   26257.23338155  .00000025  00000-0  10619-3 0  9995
2 21275  99.8636 164.3403 0033429 319.3931 193.5005 13.51919713744302

Acompanhe DELTA 1 DEB em tempo real com AllMySat

Download on the App Store